Location: �clusier
(49.9361°N, 2.7869°E)
Time: 07:59:33
(UTC+00:00)

Lacrosse 5 - Pass Details

Date: 16 June 2021
Orbit: 715 x 724 km, 57.0° (Epoch: 28 July)

Event Time Altitude Azimuth Distance (km) Brightness Sun altitude
Rises 21:04:34 0° 300° (WNW) 3,127 6.6 -8.1°
Reaches altitude 10° 21:07:08 10° 291° (WNW) 2,204 5.4 -8.3°
Maximum altitude 21:11:37 32° 229° (SW) 1,211 3.0 -8.7°
Drops below altitude 10° 21:16:06 10° 167° (SSE) 2,198 3.8 -9.2°
Enters shadow 21:16:11 10° 166° (SSE) 2,227 3.8 -9.2°
